格洛纳斯-794 COSMOS 2402 [GLONASS]

导读 | 星芒AI

COSMOS 2402 是一颗俄罗斯 GLONASS 卫星导航系统的一部分,于2011年发射。它属于 GLONASS-K 系列,旨在提供高精度的全球定位和导航服务。该卫星运行在中地球轨道,设计寿命为7年,配备现代化的通信和导航设备,增强了系统的稳定性和覆盖范围。COSMOS 2402 的部署有助于提升 GLONASS 在全球范围内的竞争力,与 GPS、北斗等系统形成互补。

基本信息
目录编号:
28113
目录名称:
COSMOS 2402 (GLONASS)
国际标识:
2003-056B
轨道中心:
EARTH
卫星名称:
格洛纳斯-794
卫星全名:
格洛纳斯-794 COSMOS 2402 [GLONASS]
卫星状态:
在轨 (已飞行7994 天)
发射日期:
2003-12-10 UTC
国别 :
俄罗斯(独联体) (CIS)
星等 :
--
轨道信息
数据来源 国际轨道数据
星历时间: 2025-10-18T11:02:11+0800
轨道信息已过期11天
半长轴: 25507.794km
偏心率: 0.0049472
轨道倾角: 64.162°
近地点辐角 75.017°
升交点赤经 70.714°
平近点角 286.128°
近地点: 19003.466km
远地点: 19255.852km
周期: 675.724分钟
每日圈数: 2.131049
详细信息
平衡模式:
三轴稳定
覆盖范围:
全球
运营商:
列舍特涅夫卫星信息系统
运营商所在国:
俄罗斯
制造商(研发单位):
列舍特涅夫卫星信息系统
制造商所在国:
俄罗斯
使用方式:
暂无
卫星简介
格洛纳斯(GLONASS )是苏联/俄罗斯研制卫星导航系统。标准配置为24颗卫星,其中18颗卫星就能保证该系统为俄罗斯境内用户提供全部服务。该卫星已退役。
2D轨道图
3D轨道图
轨道高度分析图
轨道倾角分析图
轨道综合分析图
查看轨道综合分析图